Theta_e
307 307 307 307 308 308 308 308 309 308 310 310 309 309 313 310 306 304 298 295 292 290 288 288 288 286 285 287 287 287 288 287 286 285 285 284 284 283 282 280 279 277 278 279
307 308 308 308 307 307 308 308 309 308 308 306 306 311 314 311 307 303 299 296 293 291 289 288 288 288 289 288 288 287 286 286 286 285 284 284 283 282 281 280 279 277 277 277
311 310 310 310 307 308 308 309 309 308 307 306 312 313 313 310 306 303 301 298 294 292 290 288 289 290 289 289 288 287 287 286 286 285 284 283 282 281 280 279 278 278 277 277
309 309 310 306 308 307 308 307 307 311 312 312 312 309 310 306 304 303 300 297 294 291 290 290 290 289 288 288 287 286 286 285 285 284 284 283 282 281 281 280 280 279 278 277
310 309 308 308 307 307 311 311 312 312 312 310 308 306 306 306 303 300 298 294 292 291 290 289 289 289 288 287 286 285 285 284 284 284 283 283 282 282 282 281 280 279 278 278
308 311 311 308 311 311 311 310 311 310 310 309 307 305 301 302 299 296 293 292 290 290 289 289 289 289 287 286 285 284 284 283 283 283 283 282 282 282 282 282 281 280 279 278
309 310 310 308 310 310 312 312 310 308 308 307 308 305 301 298 297 293 292 291 290 290 290 289 289 288 287 286 285 284 284 283 283 282 282 283 283 283 282 282 282 281 279 277
311 313 312 311 311 312 309 310 308 308 308 306 302 301 299 296 295 294 293 292 291 290 290 289 289 288 287 286 284 284 283 283 282 282 283 283 283 283 283 282 283 282 280 278
311 307 308 310 310 311 309 308 308 307 306 305 302 300 297 296 296 295 293 291 290 290 290 290 289 288 287 286 285 284 284 283 283 283 283 283 283 282 282 282 281 280 279 277
311 309 311 311 309 309 308 308 307 306 304 303 301 299 297 296 296 294 292 291 290 290 289 289 289 288 288 286 285 285 284 284 283 283 283 282 281 281 281 281 280 279 277 276
309 308 310 310 310 310 308 306 305 305 303 302 300 298 297 297 296 293 292 291 290 290 289 289 289 288 287 286 286 285 285 284 283 283 282 282 281 280 276 275 276 277 277 276
311 310 310 310 308 309 307 306 304 304 303 302 300 298 297 296 295 293 292 291 290 290 289 289 288 287 287 286 286 285 285 284 283 283 282 282 280 278 276 277 276 275 274 274
310 310 307 308 307 307 306 304 303 303 301 300 299 298 298 295 295 293 292 291 290 290 289 289 288 287 286 286 286 286 285 284 283 283 282 281 280 279 277 276 276 276 276 275
307 305 306 305 304 305 303 302 303 302 301 300 299 299 297 295 294 292 291 291 290 290 289 288 287 287 286 286 285 285 285 284 283 283 282 281 281 280 279 279 279 278 278 277
306 306 305 304 303 302 301 301 300 299 298 298 298 297 295 293 292 292 291 291 289 289 288 287 287 286 286 285 285 284 284 283 282 282 282 281 281 280 279 279 279 279 279 278
306 304 304 304 303 302 301 300 299 298 297 296 296 295 294 293 292 291 290 289 288 287 287 286 286 285 285 285 284 283 283 282 282 282 281 280 279 279 279 279 279 279 279 278
304 304 303 304 302 301 300 299 298 297 296 295 295 295 293 292 290 288 288 288 287 287 287 286 285 284 284 283 283 282 282 282 282 281 281 279 280 279 279 279 279 278 278 276
304 304 303 302 300 299 299 298 297 296 294 295 295 294 292 291 287 286 286 286 286 285 285 285 284 284 283 282 282 282 282 282 280 280 280 280 280 279 279 279 278 277 276 275
302 302 301 300 299 298 297 295 294 294 293 293 292 290 291 289 287 285 285 285 284 283 283 283 282 282 281 281 281 282 283 282 280 279 280 280 279 278 278 278 276 275 274 273
301 299 299 297 298 296 292 292 292 291 291 291 289 288 286 286 285 285 284 283 284 283 283 282 281 280 279 279 279 281 281 281 280 280 279 278 278 278 277 276 275 274 273 272
293 292 291 290 289 292 293 292 291 289 289 289 289 287 286 285 285 284 284 283 283 284 284 281 279 278 278 277 279 280 280 280 279 278 278 277 277 276 275 274 273 272 271 270
291 289 288 288 288 288 289 290 289 288 288 288 287 287 286 284 284 283 284 284 282 282 281 278 278 278 277 276 279 279 279 279 278 278 278 277 276 274 273 272 271 269 268 268
290 290 288 288 288 287 287 288 287 287 288 287 287 286 285 284 283 283 282 283 282 280 278 278 279 278 277 277 279 278 278 278 278 277 275 274 273 272 271 269 268 267 266 265
290 290 289 289 288 287 286 287 287 286 286 286 285 285 285 283 284 284 284 283 280 279 279 279 278 277 277 279 279 278 277 277 275 274 273 272 270 269 268 267 266 265 264 263
289 289 289 289 289 288 287 286 285 285 285 285 285 285 285 285 284 282 282 280 279 279 279 278 277 277 279 278 277 276 275 274 273 272 270 269 268 267 266 265 264 263 262 261
290 289 290 292 291 288 287 286 285 285 284 284 285 285 285 285 282 281 280 279 279 279 277 276 277 277 277 276 275 274 272 271 270 269 268 267 265 264 264 263 262 261 260 260
292 291 291 289 290 290 289 288 287 285 285 285 284 283 282 282 281 280 279 278 277 276 276 276 276 275 274 273 272 271 270 269 268 266 265 264 264 263 262 262 261 260 259 258
Wind_Speed
12 12 13 16 16 15 13 13 7 13 14 7 8 7 4 9 13 14 14 12 11 9 11 13 12 12 12 12 11 10 9 8 11 12 13 14 17 17 18 21 22 26 27 29
9 11 14 18 14 13 18 19 18 20 20 11 10 5 8 13 16 14 14 14 14 12 15 14 15 15 14 14 14 14 12 11 11 12 14 16 17 18 18 18 21 25 29 29
10 7 11 12 11 16 17 19 13 16 16 9 4 5 8 9 15 15 14 14 14 14 17 17 18 15 17 15 16 14 13 13 13 14 15 15 15 16 17 19 22 24 27 28
4 4 10 8 7 12 14 11 13 4 12 4 6 4 4 8 11 11 13 14 12 18 19 20 20 19 17 16 16 16 16 15 14 14 15 16 15 16 16 17 20 25 24 26
4 5 10 15 12 8 1 5 1 3 3 5 6 6 6 6 5 7 10 14 18 27 26 24 22 21 19 20 19 17 16 15 14 14 14 14 14 14 13 15 17 19 23 25
3 4 4 4 3 5 3 4 4 4 7 7 5 3 3 5 8 10 20 24 24 28 26 23 21 20 23 22 19 17 14 13 13 13 13 12 12 12 13 12 13 16 19 22
10 7 7 4 4 2 4 4 3 3 7 7 4 2 6 8 9 20 22 23 24 25 24 24 23 25 23 21 19 18 17 16 15 14 13 10 8 9 12 12 10 12 17 17
5 5 8 3 6 3 5 3 4 2 5 10 11 10 9 8 11 18 20 21 21 20 22 24 23 24 23 19 19 18 16 15 14 13 11 10 8 9 8 9 11 11 12 14
5 6 4 3 5 3 2 3 2 6 8 12 12 8 9 8 9 15 21 21 21 18 24 22 23 23 22 20 21 20 18 16 14 12 10 9 8 9 11 10 11 12 12 11
3 4 2 6 8 4 2 3 5 10 10 11 11 11 9 7 7 14 20 20 21 22 22 21 22 22 20 24 22 19 18 16 13 13 11 10 9 5 6 8 10 10 10 10
3 12 7 4 12 7 3 5 7 8 8 11 14 12 10 8 6 15 19 20 21 22 22 21 20 19 26 25 23 21 19 16 15 13 15 12 8 6 8 7 5 6 6 6
3 8 3 7 11 9 7 5 7 7 5 12 13 13 10 7 13 18 18 20 22 25 23 19 18 26 24 22 20 20 19 18 16 13 13 11 11 11 6 7 7 7 5 6
5 4 4 3 5 4 7 7 7 7 7 8 15 17 15 8 17 19 22 22 24 24 23 22 20 22 21 18 17 18 19 16 15 14 13 14 13 12 12 6 4 2 2 2
4 6 2 2 3 3 8 7 11 11 13 13 12 18 18 13 17 20 20 20 21 22 20 23 21 19 18 17 16 13 14 17 18 12 12 14 13 9 9 7 4 3 6 7
8 5 1 6 7 7 10 6 7 7 6 8 17 16 20 15 15 19 20 18 21 20 21 20 19 17 18 17 14 11 11 16 15 13 10 8 6 4 6 4 5 6 6 8
7 6 5 7 8 8 7 6 7 6 7 6 11 16 20 19 18 19 18 21 23 20 19 19 20 18 16 15 13 11 11 10 9 8 7 7 7 8 8 6 6 4 1 4
8 5 5 5 7 7 6 6 7 7 7 10 13 18 22 19 20 20 18 17 18 17 17 19 20 17 14 12 11 11 11 11 11 9 8 8 9 9 7 5 4 0 3 6
7 6 6 7 7 7 7 7 12 13 9 15 16 18 20 20 16 21 22 20 18 17 16 16 16 14 12 13 13 14 13 11 10 12 8 10 9 7 5 4 3 5 7 6
8 8 8 10 13 10 9 10 13 18 20 21 20 18 20 23 26 25 23 21 19 18 14 12 12 11 12 15 16 7 13 11 10 9 7 8 7 4 4 5 8 6 6 6
11 15 16 14 19 20 14 18 20 19 19 21 22 22 21 21 24 22 19 16 13 8 11 11 11 11 12 12 13 10 8 11 11 11 9 7 4 5 6 6 6 5 3 2
10 14 13 15 14 18 19 18 20 18 17 20 21 20 20 19 18 18 16 13 9 9 11 11 12 11 9 11 13 8 10 10 9 8 6 5 6 7 8 7 5 2 2 1
8 10 12 13 13 12 12 14 17 17 17 15 17 18 19 17 16 13 10 10 13 12 12 13 12 8 8 11 11 11 9 8 7 7 8 9 9 9 6 4 3 1 1 2
9 10 12 14 12 12 13 14 16 17 16 16 17 17 16 18 18 16 10 9 14 13 13 14 13 11 9 13 12 10 10 10 9 10 9 6 4 3 2 2 3 4 4 4
11 11 11 15 19 17 12 13 13 13 13 13 13 13 14 17 11 7 10 12 14 16 14 14 14 13 13 12 11 12 13 12 9 6 5 3 2 2 4 4 4 4 5 5
13 15 18 17 12 10 16 15 16 16 14 14 13 11 12 15 9 15 15 16 18 16 16 13 12 15 14 16 15 13 11 8 6 5 4 3 3 4 4 5 5 5 5 5
14 13 14 13 13 16 17 17 15 17 18 16 13 12 11 11 15 15 15 17 18 16 14 16 15 15 15 13 10 8 7 6 5 4 4 3 4 4 4 4 4 5 6 7
15 14 16 17 15 13 13 15 19 18 19 19 15 11 12 14 14 17 20 20 17 18 18 17 15 12 10 8 7 6 5 3 4 4 3 3 4 5 5 6 6 7 8 6
Wind_Direction
274 284 290 293 298 299 291 274 256 279 267 256 257 251 289 165 156 159 165 160 164 165 167 174 176 173 146 149 144 142 142 116 95 87 87 81 74 70 66 61 51 44 49 51
273 266 270 271 266 261 264 272 268 270 274 240 249 117 105 148 154 176 168 167 164 164 171 179 184 179 170 165 152 131 122 120 108 101 95 87 80 74 65 59 58 51 48 46
276 278 301 281 242 245 251 253 251 258 270 275 114 147 177 165 169 168 167 161 161 164 170 176 184 179 160 150 145 139 127 117 108 101 96 91 86 78 70 63 60 57 48 50
291 9 269 247 234 246 252 265 260 358 328 105 126 66 102 148 152 154 154 153 155 158 168 173 160 152 151 145 133 124 117 111 109 103 96 93 89 84 76 68 59 55 55 50
245 222 283 305 287 278 87 280 205 88 176 139 110 73 30 119 124 138 138 137 142 151 147 144 149 149 146 132 128 124 116 114 115 114 107 99 91 89 85 75 68 63 61 55
216 240 264 226 120 79 158 291 184 184 170 138 133 107 234 131 112 106 122 133 136 139 143 145 151 152 139 133 133 127 131 128 125 120 112 104 98 89 87 85 76 69 65 58
223 244 271 263 131 72 60 232 220 193 163 156 137 200 147 119 106 124 129 131 137 145 151 158 159 151 144 146 145 144 143 137 129 122 118 117 113 97 84 79 90 84 78 59
209 231 260 342 117 173 216 182 175 116 123 108 119 113 116 116 128 130 133 140 149 154 157 159 162 157 154 157 157 155 147 139 132 127 132 133 121 106 98 87 94 115 89 56
194 219 223 202 169 246 280 202 176 126 135 136 134 132 135 140 143 142 143 150 162 166 155 168 167 165 160 161 162 160 157 152 145 142 136 128 128 123 101 99 96 89 81 72
337 264 188 337 317 303 217 325 120 128 132 136 134 138 145 155 168 145 151 158 170 152 160 170 174 176 168 164 168 166 165 162 156 149 148 142 137 121 141 111 103 93 92 80
286 283 320 327 254 200 152 112 93 116 142 139 140 149 158 171 172 149 156 165 160 154 163 171 179 176 164 167 169 172 171 171 170 162 155 143 127 107 97 101 86 122 105 71
215 254 203 201 214 192 144 137 136 125 119 140 145 152 163 168 171 153 162 160 149 159 163 169 161 159 163 169 173 177 177 175 173 173 182 177 155 136 119 97 90 85 86 72
221 188 154 116 84 96 130 137 121 128 129 129 143 153 165 156 162 156 152 153 155 162 168 166 164 161 168 175 183 184 177 181 183 182 169 172 176 173 160 161 152 152 149 138
160 111 75 138 159 91 109 103 118 118 127 133 141 154 147 144 142 139 148 155 157 158 162 165 166 166 174 181 185 179 187 187 178 167 176 159 141 148 171 173 196 240 246 245
190 185 189 148 123 103 106 112 113 117 110 104 130 129 133 128 130 143 149 154 156 153 151 153 155 155 169 176 181 186 171 161 169 171 172 182 194 188 165 202 240 270 284 237
158 142 151 137 144 132 137 147 122 117 110 108 118 128 138 135 134 138 141 145 145 146 153 159 161 165 177 183 186 178 177 184 187 190 181 187 185 193 208 227 247 278 146 148
121 149 146 147 144 142 142 130 131 127 124 122 133 132 139 134 126 122 127 139 148 155 164 172 170 178 191 203 201 196 184 175 171 187 192 190 198 211 225 215 230 184 168 143
162 184 194 153 137 121 106 117 126 133 131 135 132 136 140 141 131 134 133 135 138 142 161 169 177 184 191 187 179 193 194 193 199 202 198 204 197 206 198 200 185 131 137 130
90 82 92 103 111 104 99 99 108 125 133 134 131 131 139 143 147 145 147 146 148 148 159 172 181 192 196 194 192 155 193 189 181 188 203 188 193 212 219 189 142 126 123 119
70 73 81 77 101 108 102 119 126 127 136 135 132 130 130 141 149 150 157 151 171 178 179 187 190 190 193 190 187 173 170 169 175 179 157 162 178 167 148 151 143 132 124 102
72 82 81 88 83 108 124 135 136 134 143 147 145 145 144 148 154 156 152 147 165 180 185 187 182 181 185 184 173 187 182 177 162 165 189 206 169 140 137 136 135 135 130 128
86 93 94 100 102 99 114 133 138 138 142 141 143 145 145 147 152 156 175 178 177 181 177 168 163 166 163 168 161 165 171 172 171 169 162 154 149 144 149 159 149 148 278 294
111 109 114 123 121 122 126 135 143 146 146 151 155 159 163 167 168 152 137 173 178 173 164 160 169 168 161 158 167 171 169 170 168 160 159 165 177 201 246 274 289 287 288 304
119 122 123 131 130 124 114 129 136 142 145 150 153 157 158 156 156 208 207 169 163 156 166 168 168 163 158 159 165 162 158 158 160 163 175 199 222 264 277 276 274 276 285 292
137 138 141 144 134 130 138 140 136 134 133 138 139 145 160 167 162 146 149 150 160 159 153 157 156 153 163 159 155 152 153 161 172 189 193 215 244 243 248 263 278 283 269 258
136 142 157 162 155 154 155 153 149 146 138 132 128 134 139 154 149 149 151 157 153 153 147 147 156 154 147 148 151 156 167 174 186 207 226 232 242 250 260 273 257 250 266 279
128 129 110 96 112 144 167 188 162 156 159 157 143 145 144 147 144 148 153 149 143 144 150 152 150 151 151 155 158 156 161 188 205 209 227 233 240 249 265 273 254 259 270 281